Location: Cedar Falls
(42.5280°N, 92.4450°W)
Time: 11:56:19
(UTC-05:00)

NOSS 3-1 (C) - Visible Passes

Search period start: 30 July 2016 00:00
Search period end: 09 August 2016 00:00
Orbit: 847 x 1362 km, 63.4° (Epoch: 27 July)

Date Brightness Start Highest point End Pass type
(mag) Time Alt. Az. Time Alt. Az. Time Alt. Az.
30 Jul 4.4 00:15:39 10° NW 00:22:59 50° WSW 00:24:23 46° SSW visible
30 Jul 5.0 21:39:38 10° NNW 21:46:12 34° NE 21:53:00 11° E visible
30 Jul 4.0 23:30:12 10° NW 23:37:47 74° WSW 23:40:23 47° SSE visible
31 Jul 5.7 01:23:25 10° WNW 01:27:46 16° WSW 01:27:46 16° WSW visible
31 Jul 5.4 20:54:31 10° NNW 21:00:24 25° NNE 21:06:45 10° E visible
31 Jul 4.0 22:44:54 10° NW 22:52:28 78° NE 22:56:27 34° SE visible
01 Aug 5.2 00:36:47 10° WNW 00:42:56 26° WSW 00:43:50 26° WSW visible
01 Aug 4.4 21:59:42 10° NNW 22:07:02 55° NE 22:12:33 21° ESE visible
01 Aug 4.8 23:50:52 10° NW 23:57:55 40° WSW 23:59:56 35° SW visible
02 Aug 4.8 21:14:34 10° NNW 21:21:27 40° NE 21:28:42 11° ESE visible
02 Aug 4.3 23:05:18 10° NW 23:12:47 60° WSW 23:16:06 37° S visible
03 Aug 6.0 01:00:10 10° W 01:02:33 11° WSW 01:03:30 11° WSW visible
03 Aug 4.0 22:19:56 10° NW 22:27:32 87° SW 22:32:18 29° SSE visible
04 Aug 5.6 00:12:24 10° WNW 00:17:45 20° WSW 00:19:43 18° SW visible
04 Aug 4.2 21:34:40 10° NNW 21:42:10 67° NE 21:48:34 18° SE visible
04 Aug 5.2 23:26:11 10° NW 23:32:49 32° WSW 23:35:59 24° SSW visible
05 Aug 4.5 20:49:30 10° NNW 20:56:39 48° NE 21:04:30 10° ESE visible
05 Aug 4.7 22:40:27 10° NW 22:47:45 48° WSW 22:52:18 25° S visible
06 Aug 4.2 21:54:59 10° NW 22:02:33 72° WSW 22:08:42 20° SSE visible
06 Aug 6.0 23:48:24 10° WNW 23:52:32 15° WSW 23:56:07 11° SW visible
07 Aug 4.1 21:09:40 10° NW 21:17:15 81° NE 21:25:09 12° SE visible
07 Aug 5.6 23:01:38 10° WNW 23:07:40 25° WSW 23:12:35 15° SSW visible
08 Aug 5.1 22:15:41 10° NW 22:22:40 39° WSW 22:29:07 14° S visible
